Location: Newark
(14.9306°N, 3.4333°E)
Time: 08:17:54
(UTC+00:00)

Envisat - Visible Passes

Search period start: 29 October 2020 00:00
Search period end: 08 November 2020 00:00
Orbit: 764 x 766 km, 98.1° (Epoch: 28 October)

Date Brightness Start Highest point End Pass type
(mag) Time Alt. Az. Time Alt. Az. Time Alt. Az.
29 Oct 6.6 04:19:45 10° E 04:20:47 11° E 04:21:49 10° ESE visible
30 Oct 5.5 17:58:00 10° SSW 18:02:12 26° W 18:06:24 10° NW visible
31 Oct 5.7 04:42:19 10° NE 04:46:15 23° E 04:50:10 10° SSE visible
01 Nov 6.4 18:25:29 10° SW 18:27:39 13° W 18:29:50 10° WNW visible
02 Nov 4.3 05:06:49 10° NNE 05:11:40 46° E 05:16:31 10° S visible
02 Nov 4.9 17:46:13 10° SSW 17:50:49 35° W 17:55:27 10° NW visible
03 Nov 6.1 04:31:40 10° ENE 04:34:52 17° E 04:38:03 10° SE visible
04 Nov 6.1 18:12:57 10° SW 18:16:16 18° W 18:19:35 10° WNW visible
05 Nov 4.9 04:55:44 10° NE 05:00:18 34° E 05:04:52 10° SSE visible
05 Nov 4.2 17:34:35 10° S 17:39:28 48° W 17:44:20 10° NNW visible
06 Nov 6.4 04:21:32 10° ENE 04:23:28 12° E 04:25:23 10° ESE visible
07 Nov 3.4 05:20:39 10° NNE 05:25:42 71° ESE 05:30:45 10° S visible
07 Nov 5.6 18:00:52 10° SSW 18:04:52 24° W 18:08:54 10° NW visible
